Wooster, OH

12:03 AM EST on December 14, 2019 (GMT -0500)
Wayne County

Weather History for KBJJ - October, 2019

Change the Weather History Date:

Tuesday, October 1, 2019

  Actual Average Record
Temperature  
Mean Temperature 74 °F -  
Max Temperature 88 °F 66 °F 88 °F (2019)
Min Temperature 62 °F 42 °F 32 °F (2017)
Cooling Degree Days 10    
Growing Degree Days 24 (Base 50)    
Moisture  
Dew Point 65 °F    
Average Humidity 88    
Maximum Humidity 100    
Minimum Humidity 49    
Precipitation  
Precipitation 0.00 in - - ()
Sea Level Pressure  
Sea Level Pressure 30.04 in    
Wind  
Wind Speed 2 mph (SW)    
Max Wind Speed 13 mph    
Max Gust Speed 20 mph    
Visibility 5 miles    
Events Rain    
Averages and records for this station are not official NWS values.
T = Trace of Precipitation, MM = Missing Value Source: NWS Daily Summary

Daily Weather History Graph

Daily Weather History Graph

Search for Another Location

Airport or City:

Astronomy

Oct. 01, 2019 Rise Set
Actual Time 7:23 AM EDT 7:09 PM EDT
Civil Twilight 6:56 AM EDT 7:37 PM EDT
Nautical Twilight 6:24 AM EDT 8:09 PM EDT
Astronomical Twilight 5:52 AM EDT 8:41 PM EDT
Moon 10:39 AM EDT (10/1) 9:20 PM EDT (10/1)
Length of Visible Light 12h 40m
Length of Day
11h 46m
Waxing Crescent, 12% of the Moon is Illuminated
Oct 1
Waxing Crescent
Oct 5
First Quarter
Oct 13
Full
Oct 21
Last Quarter
Oct 27
New

Hourly Weather History & Observations

Time (EDT) Temp. Heat Index Dew Point Humidity Pressure Visibility Wind Dir Wind Speed Gust Speed Precip Events Conditions
12:18 AM 64.9 °F - 64.9 °F 100% 30.07 in 1.2 mi Calm Calm - N/A   Clear
12:22 AM 64.9 °F - 64.9 °F 100% 30.07 in 3.0 mi Calm Calm - N/A   Clear
12:56 AM 64.9 °F - 64.0 °F 97% 30.05 in 1.5 mi Calm Calm - N/A   Clear
1:07 AM 66.0 °F - 64.9 °F 96% 30.06 in 2.0 mi SSE 3.5 mph - N/A   Clear
1:14 AM 66.0 °F - 66.0 °F 100% 30.06 in 4.0 mi SSE 3.5 mph - N/A   Clear
1:56 AM 64.0 °F - 64.0 °F 100% 30.04 in 5.0 mi Calm Calm - N/A   Clear
2:05 AM 64.9 °F - 64.0 °F 97% 30.06 in 1.8 mi Calm Calm - N/A   Clear
2:19 AM 64.0 °F - 63.0 °F 96% 30.07 in 0.8 mi Calm Calm - N/A   Clear
2:50 AM 64.4 °F - 62.6 °F 94% 30.06 in 1.2 mi Calm Calm - N/A   Clear
2:53 AM 64.4 °F - 62.6 °F 94% 30.07 in 3.0 mi Calm Calm - N/A   Clear
2:56 AM 64.0 °F - 63.0 °F 96% 30.05 in 4.0 mi Calm Calm - N/A   Clear
3:34 AM 63.0 °F - 63.0 °F 100% 30.07 in 1.8 mi Calm Calm - N/A   Clear
3:42 AM 63.0 °F - 63.0 °F 100% 30.06 in 0.8 mi Calm Calm - N/A   Clear
3:56 AM 63.0 °F - 62.1 °F 97% 30.05 in 1.8 mi Calm Calm - N/A   Clear
3:59 AM 63.0 °F - 62.1 °F 97% 30.07 in 3.0 mi Calm Calm - N/A   Clear
4:04 AM 63.0 °F - 62.1 °F 97% 30.07 in 1.5 mi Calm Calm - N/A   Clear
4:06 AM 63.0 °F - 62.1 °F 97% 30.07 in 0.8 mi Calm Calm - N/A   Clear
4:51 AM 62.6 °F - 62.6 °F 100% 30.08 in 1.2 mi Calm Calm - N/A   Clear
4:56 AM 62.1 °F - 62.1 °F 100% 30.06 in 1.0 mi Calm Calm - N/A   Clear
5:03 AM 62.1 °F - 62.1 °F 100% 30.08 in 0.8 mi Calm Calm - N/A   Clear
5:05 AM 62.1 °F - 62.1 °F 100% 30.08 in 1.2 mi Calm Calm - N/A   Clear
5:08 AM 62.1 °F - 62.1 °F 100% 30.08 in 3.0 mi Calm Calm - N/A   Clear
5:35 AM 63.0 °F - 62.1 °F 97% 30.07 in 2.5 mi Calm Calm - N/A   Clear
5:47 AM 63.0 °F - 62.1 °F 97% 30.07 in 4.0 mi Calm Calm - N/A   Clear
5:56 AM 63.0 °F - 62.1 °F 97% 30.06 in 5.0 mi Calm Calm - N/A   Clear
6:56 AM 64.9 °F - 64.0 °F 97% 30.06 in 7.0 mi SSW 3.5 mph - 0.00 in Rain Light Rain
7:56 AM 64.9 °F - 64.0 °F 97% 30.07 in 5.0 mi Calm Calm - 0.00 in   Clear
8:56 AM 71.1 °F - 68.0 °F 90% 30.07 in 10.0 mi SW 4.6 mph - N/A   Clear
9:56 AM 75.9 °F - 68.0 °F 76% 30.06 in 10.0 mi WSW 4.6 mph - N/A   Clear
10:56 AM 81.0 °F 83.8 °F 68.0 °F 65% 30.04 in 10.0 mi SW 8.1 mph - N/A   Clear
11:56 AM 84.0 °F 87.8 °F 69.1 °F 61% 30.03 in 10.0 mi WSW 8.1 mph - N/A   Clear
12:56 PM 84.9 °F 87.6 °F 66.9 °F 55% 30.02 in 10.0 mi West 8.1 mph 18.4 mph N/A   Scattered Clouds
1:56 PM 87.1 °F 89.9 °F 66.9 °F 51% 30.02 in 10.0 mi West 12.7 mph 19.6 mph N/A   Scattered Clouds
2:56 PM 86.0 °F 88.8 °F 66.9 °F 53% 30.01 in 10.0 mi West 8.1 mph - N/A   Scattered Clouds
3:56 PM 87.1 °F 89.2 °F 66.0 °F 49% 29.99 in 10.0 mi West 12.7 mph 18.4 mph N/A   Clear
4:56 PM 86.0 °F 88.2 °F 66.0 °F 51% 29.99 in 10.0 mi West 9.2 mph - N/A   Partly Cloudy
5:56 PM 84.9 °F 87.1 °F 66.0 °F 53% 29.99 in 10.0 mi West 5.8 mph - N/A   Partly Cloudy
6:56 PM 80.1 °F 82.3 °F 66.9 °F 64% 30.00 in 10.0 mi West 4.6 mph - N/A   Clear
7:56 PM 72.0 °F - 69.1 °F 91% 30.00 in 10.0 mi Calm Calm - N/A   Clear
8:56 PM 69.1 °F - 68.0 °F 96% 29.98 in 10.0 mi Calm Calm - N/A   Clear
9:56 PM 68.0 °F - 66.9 °F 96% 29.96 in 10.0 mi Calm Calm - N/A   Clear
10:56 PM 66.9 °F - 66.0 °F 97% 29.94 in 10.0 mi South 3.5 mph - N/A   Clear
11:56 PM 66.9 °F - 66.0 °F 97% 29.94 in 10.0 mi SW 3.5 mph - N/A   Clear